Location: Newark
(7.0858°N, 171.3717°E)
Time: 05:38:50
(UTC+00:00)

Courier 1B Rocket - Pass Details

Date: 29 November 2020
Orbit: 920 x 1202 km, 28.2° (Epoch: 20 January)

Event Time Altitude Azimuth Distance (km) Brightness Sun altitude
Rises 12:21:10 0° 211° (SSW) 3,793 - -75.5°
Reaches altitude 10° 12:24:39 10° 194° (SSW) 2,894 - -75.5°
Maximum altitude 12:29:39 20° 149° (SSE) 2,304 - -75.4°
Drops below altitude 10° 12:34:51 10° 105° (ESE) 3,035 - -75.2°
Sets 12:38:36 0° 89° (E) 4,036 - -75.0°
